Flag for Germany Weather past 2 weeks in Forchheim, Bavaria, Germany

Now
45 °F

Drizzle. Partly sunny.


Feels Like: 42 °F
Forecast: 36 / 42 °F
Wind: 6 mph from South

Location: Bamberg

Current Time: Mar 31, 2015 at 7:36:52 AM

Latest Report: Mar 31, 2015 at 7:00 AM


Visibility: 19 mi

Pressure: 29.44 "Hg

Humidity: 91%

Dew point: 43 °F

Location of ForchheimLocation

Historic Weather in Forchheim — Graph

°F

Forchheim temperature yesterday

Maximum temperature yesterday: 51 °F (at 12:00 AM)
Minimum temperature yesterday: 40 °F (at 11:00 PM)
Average temperature yesterday: 45 °F

Past Weeks' High & Low Weather Summary

 TemperatureHumidityPressure
High67 °F (Mar 25, 3:00 PM)95% (Mar 24, 7:00 AM)30.33 "Hg (Mar 24, 7:00 AM)
Low23 °F (Mar 21, 5:00 AM)19% (Mar 20, 4:00 PM)29.38 "Hg (Mar 29, 11:00 PM)
Average44 °F68%30.02 "Hg
* Reported Mar 16 5:00 AM — Mar 31 6:00 AM, Forchheim, Weather by CustomWeather, © 2015

Note: Actual official high and low records may vary slightly from our data, if they occured in-between our weather recording intervals... More about our weather records

Advertising

Forchheim weather history for previous 24 hours

 ConditionsComfort  
Time TempWeatherWind HumidityBarometerVisibility
6:00 AM
Tue, Mar 31
40 °FPassing clouds.97 mph94%29.50 "Hg2 mi
5:00 AM39 °FLight freezing rain. Passing clouds.6 mph94%29.59 "Hg2 mi
4:00 AM38 °FLight rain. Light fog.6 mph90%29.69 "Hg4 mi
3:00 AM40 °FLight rain. Passing clouds.5 mph72%29.77 "Hg6 mi
2:00 AM38 °FOvercast.3 mph75%29.84 "Hg28 mi
1:00 AM36 °FOvercast.3 mph81%29.87 "Hg22 mi
12:00 AM32 °FPassing clouds.2 mph89%29.90 "Hg31 mi
11:00 PM
Mon, Mar 30
40 °FPassing clouds.3 mph59%29.90 "Hg40 mi
10:00 PM42 °FClear.6 mph49%29.90 "Hg43 mi
9:00 PM42 °FClear.5 mph57%29.88 "Hg37 mi
8:00 PM40 °FPassing clouds.3 mph76%29.86 "Hg34 mi
7:00 PM40 °FOvercast.6 mph80%29.82 "Hg40 mi
6:00 PM41 °FLight rain. Partly sunny.14 mph72%29.78 "Hg15 mi
5:00 PM45 °FOvercast.14 mph58%29.75 "Hg31 mi
4:00 PM50 °FPartly sunny.9 mph42%29.68 "Hg25 mi
3:00 PM50 °FPassing clouds.9 mph47%29.65 "Hg25 mi
2:00 PM49 °FScattered clouds.13 mph47%29.64 "Hg15 mi
1:00 PM44 °FLow clouds.10 mph71%29.65 "Hg16 mi
12:00 PM48 °FPassing clouds.12 mph54%29.59 "Hg22 mi
11:00 AM46 °FOvercast.7 mph61%29.58 "Hg28 mi
10:00 AM46 °FOvercast.9 mph60%29.55 "Hg22 mi
9:00 AM44 °FOvercast.9 mph67%29.53 "Hg34 mi
8:00 AM44 °FOvercast.9 mph78%29.47 "Hg43 mi
7:00 AM44 °FOvercast.6 mph87%29.47 "Hg43 mi
Weather by CustomWeather, © 2015

See weather overviewHow to use our weather pages